Location: Bismarck
(46.7731°N, 100.8200°W)
Time: 01:00:31
(UTC-06:00)

ISS - Visible Passes

Search period start: 04 March 2015 00:00
Search period end: 14 March 2015 01:00
Orbit: 397 x 409 km, 51.6° (Epoch: 04 March)

Date Brightness Start Highest point End Pass type
(mag) Time Alt. Az. Time Alt. Az. Time Alt. Az.
11 Mar -0.8 06:51:25 10° S 06:53:42 18° SE 06:56:03 10° E visible
12 Mar -0.3 05:59:55 10° SE 06:00:20 10° SE 06:00:53 10° ESE visible
13 Mar -2.1 06:40:30 16° SSW 06:42:37 35° SE 06:45:38 10° ENE visible
